User: anonymous   Login
Location: Whispering Pines Observatory
(39.4020°N, 104.7430°W)
Time: 06:21:05
(UTC-07:00)
Language:

MOS 1 Rocket - Orbit

View from above orbital plane
View from above orbital plane
View from above satellite
View from above satellite

Ground track
Ground track

The orbit data is extracted from the following two-line orbital elements,

1 17528U 87018B   18051.84874802 +.00000051 +00000-0 +21021-4 0  9999
2 17528 097.4811 346.1135 0151030 238.6190 185.8661 14.50836455615319
Epoch (UTC): 20 February 2018 20:22:11
Eccentricity: 0.0151030
inclination: 97.4811°
perigee height: 615 km
apogee height: 830 km
right ascension of ascending node: 346.1135°
argument of perigee: 238.6190°
revolutions per day: 14.50836455
mean anomaly at epoch: 185.8661°
orbit number at epoch: 61531

The dashed part of the orbit path shows where the satellite is in the earth's shadow,  

DLR